User: anonymous   Login
Location: Unspecified
(0.0000°N, 0.0000°E)
Time: 21:40:15
(UTC+00:00)
Language:

NNS O-25 - Orbit

View from above orbital plane
View from above orbital plane
View from above satellite
View from above satellite

Ground track
Ground track

The orbit data is extracted from the following two-line orbital elements,

1 19419U 88074A   18055.96266348 +.00000067 +00000-0 +98269-4 0  9995
2 19419 089.9890 018.5987 0098512 087.4815 337.8043 13.42183708444361
Epoch (UTC): 24 February 2018 23:06:14
Eccentricity: 0.0098512
inclination: 89.9890°
perigee height: 1027 km
apogee height: 1175 km
right ascension of ascending node: 18.5987°
argument of perigee: 87.4815°
revolutions per day: 13.42183708
mean anomaly at epoch: 337.8043°
orbit number at epoch: 44436

The dashed part of the orbit path shows where the satellite is in the earth's shadow,  

DLR